Zurück zum Katalog

STARLINK-34846

AktivKommunikationVLEO
NORAD 66972·PAYLOAD·🇺🇸 United States

Gestartet Dec 8, 2025 von Cape Canaveral Space Force Station

Loading…

Nächste Überflüge (nächste 24 Stunden)

TLE

AktuellSource: CelesTrak SupGP

Epoche: Sep 14, 2026, 23:12 UTC

1 66972C 25288P   26257.96715278  .00015375  00000+0  55682-3 0  2578
2 66972  43.0021  34.3538 0001553 276.9632 196.5662 15.27574586    13

Verfolge STARLINK-34846 in Echtzeit mit AllMySat

Download on the App Store